SCP
0 0 0 0 0 0 0 0 0 0 0 0 0 0 0 0 0 0 0 0 0 0 0 0 0 0 0 0 0 0 0 0 0 0 0 0 0 1 0 0 0 0 0
0 0 0 0 0 0 1 0 0 0 0 0 0 0 0 0 0 0 0 0 0 0 0 0 0 0 0 0 0 0 0 0 0 0 0 0 0 0 0 0 0 0 0
0 0 0 0 0 0 0 1 0 0 0 0 0 0 0 0 0 0 0 0 0 0 0 0 0 0 0 0 0 0 0 0 0 0 0 0 0 0 0 0 0 0 0
0 0 0 0 0 0 0 0 0 0 0 0 0 0 0 0 0 0 0 0 0 0 0 0 0 0 0 0 0 0 0 0 0 0 0 0 0 0 0 0 0 0 0
0 0 0 0 0 0 0 0 0 0 0 0 0 0 0 0 0 0 0 0 0 0 0 0 0 0 0 0 0 0 0 0 0 0 0 0 0 0 0 0 0 0 0
0 0 0 0 0 0 0 0 0 0 0 0 0 0 0 0 0 0 0 0 0 0 0 0 0 0 0 0 0 0 0 0 0 0 0 0 0 0 0 0 -0 -0 -0
0 0 0 0 0 0 0 0 0 0 0 0 0 0 0 0 0 0 0 0 0 0 0 0 0 0 0 0 0 0 0 0 0 0 0 0 0 0 0 0 0 -0 -0
0 0 0 0 0 0 0 0 0 0 0 0 0 0 0 0 0 0 0 0 0 0 0 0 0 0 0 0 0 0 0 0 0 0 0 0 0 0 0 0 0 0 0
0 0 0 0 0 0 0 0 0 0 0 0 0 0 0 0 0 0 0 0 0 0 0 0 0 0 0 0 0 0 0 0 0 0 0 0 0 0 0 0 0 0 0
0 0 0 0 0 0 0 0 0 0 0 0 0 0 0 0 0 0 0 0 0 0 0 0 0 0 0 0 -0 0 -0 0 0 0 0 0 0 0 0 0 0 0 0
0 0 0 0 0 0 0 0 0 0 0 0 0 0 0 0 0 0 0 0 0 0 0 0 0 0 0 0 0 0 0 0 0 0 0 0 0 0 0 0 0 0 0
0 0 0 0 0 0 0 0 0 0 0 0 0 0 0 0 0 0 0 0 0 0 0 0 0 0 0 0 0 0 0 0 0 0 0 0 0 0 0 0 0 0 0
0 0 0 0 0 0 0 0 0 0 0 0 0 0 0 0 0 0 0 -0 0 0 0 0 -0 -0 -0 0 0 0 0 0 0 0 0 0 -0 -0 -0 0 0 0 0
0 0 0 0 0 0 0 0 0 0 0 0 0 0 0 0 0 0 0 -0 -0 -0 -0 0 -0 -0 0 0 0 0 0 0 0 0 0 0 0 -0 -0 0 0 0 0
0 0 0 0 0 -0 0 0 0 0 0 0 0 0 0 0 0 0 0 0 0 0 0 0 0 0 0 0 0 0 0 0 -0 0 0 -0 -0 -0 -0 0 0 -0 0
0 0 0 0 0 0 0 0 0 0 0 0 0 -0 -0 0 0 0 0 0 0 0 0 0 0 0 0 0 0 0 0 0 0 0 0 -0 -0 0 0 -0 -0 -0 0
0 0 0 0 0 0 0 0 0 0 0 0 0 0 -0 0 0 0 0 0 0 0 0 0 -0 -0 0 0 0 0 0 0 0 0 0 0 -0 0 0 -0 0 -0 0
0 0 0 0 0 0 0 0 -0 0 0 0 0 0 0 0 0 0 0 0 0 0 0 -0 -0 0 0 -0 -0 -0 0 0 -0 -0 0 0 -0 0 0 0 0 -0 0
0 0 0 -0 0 0 0 0 0 0 0 0 0 0 0 0 0 0 0 0 0 0 0 0 0 0 0 0 0 -0 0 0 -0 -0 -0 0 -0 0 0 0 0 0 0
0 0 0 0 0 0 0 0 0 0 0 0 0 0 0 0 0 0 0 0 0 0 0 0 0 0 0 -0 -0 -0 -0 -0 -0 -0 -0 -0 -0 0 0 0 0 0 0
0 0 0 0 0 0 0 0 0 0 0 0 0 0 0 0 0 0 0 0 0 0 0 0 0 0 0 0 -0 -0 -0 -0 -0 -0 -0 -0 -0 0 0 -0 0 0 -0
0 0 0 0 0 0 0 0 0 0 0 0 0 0 0 0 0 0 0 0 0 0 0 0 0 0 0 0 0 -0 -0 -0 -0 -0 -0 -0 -0 -0 -0 0 0 -0 -0
0 0 0 0 0 0 0 0 0 0 0 0 0 0 0 0 0 0 0 0 0 0 0 0 0 0 0 0 0 0 0 0 0 0 0 0 0 -0 -0 0 -0 -0 -0
0 0 0 0 0 0 0 0 0 0 0 0 0 0 0 0 0 0 0 0 0 0 0 0 0 0 0 0 0 0 0 0 0 0 0 0 0 0 0 0 0 -0 -0
0 0 0 0 0 0 0 0 0 0 0 0 0 0 0 0 0 0 0 0 0 0 0 0 0 0 0 0 0 0 0 0 0 0 0 0 0 0 0 0 0 -0 0
0 0 0 0 0 0 0 0 0 0 0 0 0 0 0 0 0 0 0 0 0 0 0 0 0 0 0 0 0 0 0 0 0 0 0 0 0 0 0 0 0 0 0
Wind_Speed_500mb
18 13 14 5 4 4 9 12 18 24 26 28 27 32 32 32 34 31 35 35 42 47 33 34 39 41 40 33 30 33 39 37 50 48 46 44 47 47 32 26 24 23 20
17 14 9 6 6 8 11 19 29 34 36 36 36 40 37 39 37 31 33 36 41 52 40 42 40 41 43 43 35 30 32 34 43 50 44 40 44 42 34 35 25 21 20
22 21 18 11 10 18 23 27 35 41 44 39 43 40 42 42 39 43 50 38 42 46 31 44 46 44 45 41 34 29 29 38 42 44 48 41 40 20 29 27 26 20 12
22 15 16 20 22 26 29 34 30 31 33 37 39 40 42 49 45 43 35 41 47 54 29 37 32 36 39 33 30 24 25 33 34 39 44 44 45 29 21 29 24 19 20
25 22 17 21 20 28 20 24 34 37 44 37 35 34 39 39 37 39 43 41 51 44 32 34 31 31 33 36 36 27 28 31 35 41 45 40 40 36 35 30 24 32 32
3 1 7 18 14 20 23 31 28 25 30 39 40 40 40 37 38 38 38 43 45 36 36 38 34 33 33 32 29 35 39 37 38 45 46 46 50 39 31 34 40 46 54
11 13 10 9 16 22 21 19 26 32 39 40 38 36 36 35 33 38 39 45 38 36 37 40 35 31 40 39 40 43 53 48 39 37 48 46 46 45 45 42 44 44 53
8 8 8 7 14 19 21 27 32 35 36 38 38 33 34 40 44 41 41 37 31 35 36 38 34 34 34 38 44 45 48 54 36 39 45 49 44 44 42 47 49 48 44
5 1 8 12 9 24 32 34 35 39 35 34 32 35 37 32 35 38 42 40 30 34 33 29 35 36 39 42 41 48 54 38 35 38 39 55 59 49 46 48 54 48 48
3 7 9 10 20 19 21 28 35 27 27 27 26 31 30 27 35 36 43 33 32 43 31 25 32 36 35 44 44 42 37 42 42 40 30 34 38 37 45 46 41 42 46
1 6 12 24 24 20 25 26 26 26 28 36 33 33 36 31 34 40 40 35 38 45 26 29 28 31 37 27 28 31 34 38 35 39 40 34 29 29 29 23 18 17 21
8 6 16 19 17 14 17 18 22 25 29 29 35 31 31 36 40 39 37 43 44 36 30 28 34 27 23 24 29 32 34 33 33 44 42 42 35 33 37 31 26 27 24
2 5 6 10 9 9 13 23 21 27 39 30 29 30 37 35 33 33 31 35 18 21 27 28 25 21 28 32 34 36 29 28 28 36 35 41 41 40 38 31 31 26 23
9 6 4 7 6 14 8 16 18 25 27 25 31 30 27 32 38 33 37 34 17 21 29 20 21 23 29 30 35 33 33 30 31 30 35 35 28 39 32 30 32 20 24
8 4 1 3 5 6 8 13 14 23 28 27 32 41 34 28 32 34 33 36 32 30 26 29 29 34 34 34 36 34 33 34 35 32 34 36 30 43 30 28 29 32 28
10 7 9 3 3 9 8 18 20 25 22 20 24 35 44 30 32 35 37 34 32 29 29 31 33 35 36 34 36 32 29 38 36 35 37 35 33 34 39 32 27 31 35
12 10 6 2 4 9 9 14 21 28 27 21 19 28 42 23 24 33 35 28 29 34 34 31 35 34 34 31 25 27 27 39 36 41 41 38 39 38 41 25 34 31 31
12 8 5 3 6 11 10 11 14 16 26 21 23 23 33 20 23 27 29 29 32 34 31 34 33 32 33 33 37 35 30 37 39 36 43 39 41 37 42 41 38 35 31
7 5 7 10 8 10 12 15 19 19 16 18 24 18 32 19 28 17 24 29 28 28 27 28 30 30 30 33 38 36 34 35 39 34 31 42 39 35 42 40 37 34 34
9 4 9 3 6 8 12 15 16 17 17 15 15 16 37 14 20 21 19 20 20 23 23 24 23 29 29 30 33 34 36 38 37 40 28 33 31 33 43 39 35 42 37
6 11 10 3 13 8 10 13 14 14 18 15 16 20 29 14 18 17 16 18 20 20 23 26 25 28 32 31 34 33 31 36 39 42 39 28 27 30 41 34 37 42 39
9 8 10 11 9 9 10 13 11 15 15 16 16 20 22 17 15 15 15 17 19 20 25 27 29 31 33 31 28 33 33 38 46 46 43 37 33 21 30 31 42 38 39
10 10 10 12 11 14 19 15 15 14 15 17 16 16 16 15 14 15 14 17 19 21 24 27 26 32 35 34 25 34 48 51 49 46 46 45 37 26 20 36 41 38 42
11 11 12 12 13 14 17 12 17 19 16 15 15 17 17 17 17 17 19 18 20 21 23 24 23 31 31 36 29 45 57 54 51 48 44 42 36 17 25 35 37 44 40
12 13 14 16 17 15 16 18 18 18 19 18 18 20 19 19 20 20 22 21 22 22 22 24 26 32 35 30 33 46 57 57 53 50 47 41 31 18 37 43 40 46 42
18 17 16 16 17 18 18 19 20 20 20 17 21 22 22 23 23 24 25 24 24 24 27 22 28 30 31 37 41 50 56 65 62 53 46 39 23 28 41 43 41 38 45
Wind_Direction_500mb
191 191 197 172 232 281 313 329 320 310 300 300 306 308 304 303 298 307 323 331 312 318 326 321 318 305 301 311 316 312 305 311 324 317 314 306 315 321 315 318 329 322 333
210 208 220 233 248 279 282 277 291 291 298 300 300 300 304 300 295 300 314 311 308 314 330 321 314 310 301 298 299 299 318 321 318 325 321 321 320 317 316 311 313 324 322
226 219 241 243 231 256 271 282 289 293 303 305 305 303 301 300 299 303 309 300 299 316 315 316 308 307 299 303 300 297 308 306 309 321 324 316 343 328 328 295 296 306 1
200 194 174 200 227 250 283 302 309 318 320 321 319 310 301 299 307 309 308 305 315 322 308 314 318 323 327 323 313 299 297 306 309 312 324 326 329 330 354 350 325 301 299
216 231 251 264 284 300 321 338 338 336 332 333 334 334 329 324 304 306 311 321 320 317 302 314 322 321 325 321 320 325 313 318 315 316 308 311 329 338 339 333 329 318 303
73 302 293 349 2 347 339 320 322 324 328 330 327 320 315 312 311 314 319 319 321 324 316 314 313 320 304 319 326 322 315 312 312 317 314 307 307 313 319 321 323 320 321
111 104 56 23 322 325 335 325 320 328 327 318 322 317 322 322 321 320 319 322 327 319 322 321 321 306 310 313 314 314 312 318 293 296 305 302 306 310 310 308 315 319 320
103 117 325 323 334 325 314 321 326 322 322 327 328 329 331 322 320 323 321 327 337 319 313 309 320 318 322 317 317 316 319 323 312 301 297 291 288 286 291 301 303 308 310
133 245 24 331 303 316 326 328 330 324 325 325 318 328 331 333 329 328 329 336 334 328 324 322 323 319 323 316 324 324 320 317 303 305 298 287 279 275 283 297 296 294 293
280 341 271 289 330 333 318 326 329 329 330 331 338 329 328 325 331 331 331 342 329 327 322 330 322 323 335 333 333 333 337 331 326 326 328 334 339 299 282 275 283 280 278
290 298 306 322 335 324 329 340 342 356 3 4 357 2 347 348 339 337 337 340 329 333 331 316 329 334 332 342 350 350 347 342 345 345 335 328 331 346 331 329 337 326 315
249 296 327 355 353 337 346 7 5 11 355 350 346 346 335 335 332 327 328 327 322 326 336 344 337 334 340 345 345 345 336 327 342 345 347 345 334 334 324 331 314 321 303
140 14 8 341 356 22 12 21 24 9 357 1 352 350 341 351 340 336 331 323 355 341 335 331 342 6 4 357 352 346 350 354 346 336 336 343 340 340 340 329 320 304 304
281 300 346 305 25 20 39 21 9 8 15 11 9 1 351 349 346 351 350 353 353 337 350 12 350 356 3 355 351 359 359 0 349 351 350 336 343 340 339 343 353 332 336
228 219 90 198 354 4 354 334 336 346 6 18 21 20 14 13 12 9 7 0 3 2 9 16 12 9 3 2 2 360 359 3 358 350 355 354 352 2 6 5 359 355 342
201 192 172 178 338 334 338 336 328 322 332 348 5 17 16 7 19 20 14 16 21 21 20 10 12 4 3 360 0 358 2 3 359 358 353 350 353 347 357 9 15 3 356
177 176 198 209 327 314 341 327 325 322 317 324 343 4 13 21 13 12 10 23 31 16 6 15 3 2 356 350 352 0 1 3 357 356 356 360 359 356 360 347 347 351 3
173 188 188 241 303 322 291 325 342 325 327 346 347 351 7 359 348 359 17 14 3 7 20 12 7 3 359 360 356 15 15 10 359 358 2 2 0 358 356 358 358 358 345
179 219 268 268 261 301 305 304 297 310 337 342 345 352 350 349 1 2 11 9 3 359 359 3 5 358 356 357 352 4 6 4 356 348 355 359 355 356 353 355 355 356 352
212 265 358 205 305 304 326 330 325 330 331 338 340 311 339 350 13 6 4 349 354 354 349 347 354 347 352 356 348 355 355 358 350 340 344 353 344 353 353 350 351 349 349
248 273 343 276 310 321 323 323 326 323 320 338 328 320 344 9 11 348 350 348 349 348 342 348 353 345 350 355 348 349 352 346 330 342 346 350 345 352 352 345 349 351 356
230 248 280 287 286 299 302 313 315 317 327 328 322 319 343 351 346 334 336 341 340 343 335 346 344 344 344 342 346 339 340 330 341 346 347 347 342 345 344 345 347 348 348
233 252 266 274 265 290 307 294 312 311 317 314 313 314 315 315 317 315 320 324 331 334 332 339 345 345 348 344 349 343 348 343 340 340 341 342 343 345 344 342 341 337 338
225 253 260 272 279 281 293 288 308 303 302 302 304 306 304 302 305 302 311 310 318 323 324 335 335 342 351 344 336 341 347 344 341 337 336 337 344 349 353 346 335 330 337
225 247 266 271 277 286 298 299 296 302 303 300 305 300 295 295 295 295 296 302 305 312 313 321 322 331 343 339 320 340 350 350 346 341 338 337 337 341 349 336 328 328 331
261 247 262 267 274 279 286 294 299 298 299 304 303 295 290 290 289 291 292 296 300 293 305 305 314 316 318 313 324 334 344 351 350 346 341 338 344 354 339 326 323 325 328
Wind_Speed_850mb
18 13 14 5 4 4 9 12 18 24 26 28 27 32 32 32 34 31 35 35 42 47 33 34 39 41 40 33 30 33 39 37 50 48 46 44 47 47 32 26 24 23 20
17 14 9 6 6 8 11 19 29 34 36 36 36 40 37 39 37 31 33 36 41 52 40 42 40 41 43 43 35 30 32 34 43 50 44 40 44 42 34 35 25 21 20
22 21 18 11 10 18 23 27 35 41 44 39 43 40 42 42 39 43 50 38 42 46 31 44 46 44 45 41 34 29 29 38 42 44 48 41 40 20 29 27 26 20 12
22 15 16 20 22 26 29 34 30 31 33 37 39 40 42 49 45 43 35 41 47 54 29 37 32 36 39 33 30 24 25 33 34 39 44 44 45 29 21 29 24 19 20
25 22 17 21 20 28 20 24 34 37 44 37 35 34 39 39 37 39 43 41 51 44 32 34 31 31 33 36 36 27 28 31 35 41 45 40 40 36 35 30 24 32 32
3 1 7 18 14 20 23 31 28 25 30 39 40 40 40 37 38 38 38 43 45 36 36 38 34 33 33 32 29 35 39 37 38 45 46 46 50 39 31 34 40 46 54
11 13 10 9 16 22 21 19 26 32 39 40 38 36 36 35 33 38 39 45 38 36 37 40 35 31 40 39 40 43 53 48 39 37 48 46 46 45 45 42 44 44 53
8 8 8 7 14 19 21 27 32 35 36 38 38 33 34 40 44 41 41 37 31 35 36 38 34 34 34 38 44 45 48 54 36 39 45 49 44 44 42 47 49 48 44
5 1 8 12 9 24 32 34 35 39 35 34 32 35 37 32 35 38 42 40 30 34 33 29 35 36 39 42 41 48 54 38 35 38 39 55 59 49 46 48 54 48 48
3 7 9 10 20 19 21 28 35 27 27 27 26 31 30 27 35 36 43 33 32 43 31 25 32 36 35 44 44 42 37 42 42 40 30 34 38 37 45 46 41 42 46
1 6 12 24 24 20 25 26 26 26 28 36 33 33 36 31 34 40 40 35 38 45 26 29 28 31 37 27 28 31 34 38 35 39 40 34 29 29 29 23 18 17 21
8 6 16 19 17 14 17 18 22 25 29 29 35 31 31 36 40 39 37 43 44 36 30 28 34 27 23 24 29 32 34 33 33 44 42 42 35 33 37 31 26 27 24
2 5 6 10 9 9 13 23 21 27 39 30 29 30 37 35 33 33 31 35 18 21 27 28 25 21 28 32 34 36 29 28 28 36 35 41 41 40 38 31 31 26 23
9 6 4 7 6 14 8 16 18 25 27 25 31 30 27 32 38 33 37 34 17 21 29 20 21 23 29 30 35 33 33 30 31 30 35 35 28 39 32 30 32 20 24
8 4 1 3 5 6 8 13 14 23 28 27 32 41 34 28 32 34 33 36 32 30 26 29 29 34 34 34 36 34 33 34 35 32 34 36 30 43 30 28 29 32 28
10 7 9 3 3 9 8 18 20 25 22 20 24 35 44 30 32 35 37 34 32 29 29 31 33 35 36 34 36 32 29 38 36 35 37 35 33 34 39 32 27 31 35
12 10 6 2 4 9 9 14 21 28 27 21 19 28 42 23 24 33 35 28 29 34 34 31 35 34 34 31 25 27 27 39 36 41 41 38 39 38 41 25 34 31 31
12 8 5 3 6 11 10 11 14 16 26 21 23 23 33 20 23 27 29 29 32 34 31 34 33 32 33 33 37 35 30 37 39 36 43 39 41 37 42 41 38 35 31
7 5 7 10 8 10 12 15 19 19 16 18 24 18 32 19 28 17 24 29 28 28 27 28 30 30 30 33 38 36 34 35 39 34 31 42 39 35 42 40 37 34 34
9 4 9 3 6 8 12 15 16 17 17 15 15 16 37 14 20 21 19 20 20 23 23 24 23 29 29 30 33 34 36 38 37 40 28 33 31 33 43 39 35 42 37
6 11 10 3 13 8 10 13 14 14 18 15 16 20 29 14 18 17 16 18 20 20 23 26 25 28 32 31 34 33 31 36 39 42 39 28 27 30 41 34 37 42 39
9 8 10 11 9 9 10 13 11 15 15 16 16 20 22 17 15 15 15 17 19 20 25 27 29 31 33 31 28 33 33 38 46 46 43 37 33 21 30 31 42 38 39
10 10 10 12 11 14 19 15 15 14 15 17 16 16 16 15 14 15 14 17 19 21 24 27 26 32 35 34 25 34 48 51 49 46 46 45 37 26 20 36 41 38 42
11 11 12 12 13 14 17 12 17 19 16 15 15 17 17 17 17 17 19 18 20 21 23 24 23 31 31 36 29 45 57 54 51 48 44 42 36 17 25 35 37 44 40
12 13 14 16 17 15 16 18 18 18 19 18 18 20 19 19 20 20 22 21 22 22 22 24 26 32 35 30 33 46 57 57 53 50 47 41 31 18 37 43 40 46 42
18 17 16 16 17 18 18 19 20 20 20 17 21 22 22 23 23 24 25 24 24 24 27 22 28 30 31 37 41 50 56 65 62 53 46 39 23 28 41 43 41 38 45
Wind_Direction_850mb
191 191 197 172 232 281 313 329 320 310 300 300 306 308 304 303 298 307 323 331 312 318 326 321 318 305 301 311 316 312 305 311 324 317 314 306 315 321 315 318 329 322 333
210 208 220 233 248 279 282 277 291 291 298 300 300 300 304 300 295 300 314 311 308 314 330 321 314 310 301 298 299 299 318 321 318 325 321 321 320 317 316 311 313 324 322
226 219 241 243 231 256 271 282 289 293 303 305 305 303 301 300 299 303 309 300 299 316 315 316 308 307 299 303 300 297 308 306 309 321 324 316 343 328 328 295 296 306 1
200 194 174 200 227 250 283 302 309 318 320 321 319 310 301 299 307 309 308 305 315 322 308 314 318 323 327 323 313 299 297 306 309 312 324 326 329 330 354 350 325 301 299
216 231 251 264 284 300 321 338 338 336 332 333 334 334 329 324 304 306 311 321 320 317 302 314 322 321 325 321 320 325 313 318 315 316 308 311 329 338 339 333 329 318 303
73 302 293 349 2 347 339 320 322 324 328 330 327 320 315 312 311 314 319 319 321 324 316 314 313 320 304 319 326 322 315 312 312 317 314 307 307 313 319 321 323 320 321
111 104 56 23 322 325 335 325 320 328 327 318 322 317 322 322 321 320 319 322 327 319 322 321 321 306 310 313 314 314 312 318 293 296 305 302 306 310 310 308 315 319 320
103 117 325 323 334 325 314 321 326 322 322 327 328 329 331 322 320 323 321 327 337 319 313 309 320 318 322 317 317 316 319 323 312 301 297 291 288 286 291 301 303 308 310
133 245 24 331 303 316 326 328 330 324 325 325 318 328 331 333 329 328 329 336 334 328 324 322 323 319 323 316 324 324 320 317 303 305 298 287 279 275 283 297 296 294 293
280 341 271 289 330 333 318 326 329 329 330 331 338 329 328 325 331 331 331 342 329 327 322 330 322 323 335 333 333 333 337 331 326 326 328 334 339 299 282 275 283 280 278
290 298 306 322 335 324 329 340 342 356 3 4 357 2 347 348 339 337 337 340 329 333 331 316 329 334 332 342 350 350 347 342 345 345 335 328 331 346 331 329 337 326 315
249 296 327 355 353 337 346 7 5 11 355 350 346 346 335 335 332 327 328 327 322 326 336 344 337 334 340 345 345 345 336 327 342 345 347 345 334 334 324 331 314 321 303
140 14 8 341 356 22 12 21 24 9 357 1 352 350 341 351 340 336 331 323 355 341 335 331 342 6 4 357 352 346 350 354 346 336 336 343 340 340 340 329 320 304 304
281 300 346 305 25 20 39 21 9 8 15 11 9 1 351 349 346 351 350 353 353 337 350 12 350 356 3 355 351 359 359 0 349 351 350 336 343 340 339 343 353 332 336
228 219 90 198 354 4 354 334 336 346 6 18 21 20 14 13 12 9 7 0 3 2 9 16 12 9 3 2 2 360 359 3 358 350 355 354 352 2 6 5 359 355 342
201 192 172 178 338 334 338 336 328 322 332 348 5 17 16 7 19 20 14 16 21 21 20 10 12 4 3 360 0 358 2 3 359 358 353 350 353 347 357 9 15 3 356
177 176 198 209 327 314 341 327 325 322 317 324 343 4 13 21 13 12 10 23 31 16 6 15 3 2 356 350 352 0 1 3 357 356 356 360 359 356 360 347 347 351 3
173 188 188 241 303 322 291 325 342 325 327 346 347 351 7 359 348 359 17 14 3 7 20 12 7 3 359 360 356 15 15 10 359 358 2 2 0 358 356 358 358 358 345
179 219 268 268 261 301 305 304 297 310 337 342 345 352 350 349 1 2 11 9 3 359 359 3 5 358 356 357 352 4 6 4 356 348 355 359 355 356 353 355 355 356 352
212 265 358 205 305 304 326 330 325 330 331 338 340 311 339 350 13 6 4 349 354 354 349 347 354 347 352 356 348 355 355 358 350 340 344 353 344 353 353 350 351 349 349
248 273 343 276 310 321 323 323 326 323 320 338 328 320 344 9 11 348 350 348 349 348 342 348 353 345 350 355 348 349 352 346 330 342 346 350 345 352 352 345 349 351 356
230 248 280 287 286 299 302 313 315 317 327 328 322 319 343 351 346 334 336 341 340 343 335 346 344 344 344 342 346 339 340 330 341 346 347 347 342 345 344 345 347 348 348
233 252 266 274 265 290 307 294 312 311 317 314 313 314 315 315 317 315 320 324 331 334 332 339 345 345 348 344 349 343 348 343 340 340 341 342 343 345 344 342 341 337 338
225 253 260 272 279 281 293 288 308 303 302 302 304 306 304 302 305 302 311 310 318 323 324 335 335 342 351 344 336 341 347 344 341 337 336 337 344 349 353 346 335 330 337
225 247 266 271 277 286 298 299 296 302 303 300 305 300 295 295 295 295 296 302 305 312 313 321 322 331 343 339 320 340 350 350 346 341 338 337 337 341 349 336 328 328 331
261 247 262 267 274 279 286 294 299 298 299 304 303 295 290 290 289 291 292 296 300 293 305 305 314 316 318 313 324 334 344 351 350 346 341 338 344 354 339 326 323 325 328